Location: Marstown
(39.5056°N, 77.0820°W)
Time: 23:51:16
(UTC-05:00)

ISS - Visible Passes

Search period start: 18 January 2019 00:00
Search period end: 28 January 2019 00:00
Orbit: 404 x 411 km, 51.6° (Epoch: 19 January)

Date Brightness Start Highest point End Pass type
(mag) Time Alt. Az. Time Alt. Az. Time Alt. Az.
19 Jan -1.3 19:01:13 10° S 19:01:50 13° S 19:01:50 13° S visible
20 Jan -1.4 18:12:00 10° SE 18:12:35 10° SE 18:13:06 10° ESE visible
20 Jan -0.7 19:45:21 10° SW 19:45:51 14° SW 19:45:51 14° SW visible
21 Jan -3.4 18:54:07 10° SW 18:57:02 50° SSE 18:57:02 50° SSE visible
22 Jan -2.5 18:03:14 10° SSW 18:06:03 26° SE 18:08:07 15° E visible
22 Jan -1.1 19:39:29 10° W 19:40:51 20° W 19:40:51 20° W visible
23 Jan -3.4 18:47:48 10° WSW 18:51:03 58° NW 18:51:51 42° NNE visible
24 Jan -3.8 17:56:23 10° SW 17:59:39 73° SE 18:02:46 11° NE visible
24 Jan -1.1 19:34:02 10° WNW 19:35:29 17° NW 19:35:29 17° NW visible
25 Jan -2.2 18:42:01 10° W 18:44:54 27° NNW 18:46:19 20° NNE visible
26 Jan -2.9 17:50:12 10° WSW 17:53:22 44° NNW 17:56:33 10° NE visible
26 Jan -1.0 19:28:55 10° NW 19:29:49 12° NNW 19:29:49 12° NNW visible
27 Jan -1.5 18:36:38 10° WNW 18:38:50 17° NNW 18:40:31 12° NNE visible
